GW2440 Weather Reports


Display with metric or nautical units.
time (UTC)temp
F
wind
direction
speed
MPH
gust
MPH
rain 1hr
in
rain 24hr
in
rain mn
in
humidity
%
barometer
mb
20260504070304 65 34 2.0 2.0 0.00 0.00 0.00 86 1018.2
20260504060224 66 68 0.0 0.0 0.00 0.00 0.00 87 1018.2
20260504050652 67 20 0.0 0.0 0.00 0.00 0.00 87 1019.2
20260504050149 67 20 0.0 0.0 0.00 0.00 0.00 86 1018.9
20260504045646 68 30 0.0 0.0 0.00 0.00 0.00 85 1019.2
20260504045146 68 32 0.0 0.0 0.00 0.00 0.00 85 1019.6
20260504044644 67 56 0.0 1.0 0.00 0.00 0.00 86 1019.2
20260504044141 67 80 0.0 0.0 0.00 0.00 0.00 86 1019.2
20260504043638 68 80 0.0 0.0 0.00 0.00 0.00 86 1019.2
20260504043135 68 59 1.0 2.0 0.00 0.00 0.00 85 1019.2
20260504042632 68 60 1.0 2.0 0.00 0.00 0.00 85 1019.2
20260504042129 68 54 2.0 2.0 0.00 0.00 0.00 85 1019.2
20260504041625 67 101 1.0 1.0 0.00 0.00 0.00 84 1019.2
20260504041121 68 65 1.0 2.0 0.00 0.00 0.00 85 1019.2
20260504040618 68 56 0.0 0.0 0.00 0.00 0.00 84 1019.6
20260504040115 68 61 0.0 0.0 0.00 0.03 0.03 83 1019.2
20260504035612 68 58 0.0 0.0 0.00 0.03 0.03 83 1019.6
20260504035108 68 55 1.0 1.0 0.00 0.03 0.03 83 1019.6
20260504034606 68 70 1.0 2.0 0.00 0.03 0.03 82 1019.6
20260504034103 68 61 1.0 2.0 0.00 0.03 0.03 82 1019.6
20260504033601 68 61 2.0 2.0 0.00 0.03 0.03 82 1019.6
20260504033058 68 62 3.0 3.0 0.00 0.03 0.03 82 1019.6
20260504032555 68 37 3.0 3.0 0.00 0.03 0.03 81 1019.6
20260504032052 68 70 1.0 2.0 0.00 0.03 0.03 81 1019.6
20260504031548 68 56 2.0 2.0 0.00 0.03 0.03 82 1019.6
20260504031044 68 51 2.0 3.0 0.00 0.03 0.03 82 1019.6
20260504030542 68 57 1.0 1.0 0.00 0.03 0.03 82 1019.6
20260504030038 68 25 3.0 3.0 0.00 0.03 0.03 81 1019.6
20260504025535 68 69 1.0 1.0 0.00 0.03 0.03 81 1019.6
20260504025032 68 9 3.0 3.0 0.00 0.03 0.03 81 1019.9
20260504024529 68 46 1.0 1.0 0.00 0.03 0.03 81 1019.2
20260504024026 68 61 2.0 2.0 0.00 0.03 0.03 81 1019.6
20260504023523 68 60 3.0 5.0 0.00 0.03 0.03 81 1019.6
20260504023018 68 47 2.0 3.0 0.00 0.03 0.03 81 1019.6
20260504022514 68 50 2.0 3.0 0.00 0.03 0.03 80 1019.6
20260504022011 68 39 2.0 2.0 0.00 0.03 0.03 80 1019.2
20260504021509 68 17 3.0 3.0 0.00 0.03 0.03 80 1019.2
20260504021006 68 44 3.0 3.0 0.00 0.03 0.03 80 1019.2
20260504020502 68 74 2.0 3.0 0.00 0.03 0.03 79 1018.9
20260504015959 69 59 3.0 3.0 0.00 0.03 0.03 79 1019.2
20260504015455 69 28 3.0 3.0 0.00 0.03 0.03 79 1019.2
20260504014951 69 61 3.0 5.0 0.00 0.03 0.03 79 1019.2
20260504014447 69 66 4.0 5.0 0.00 0.03 0.03 78 1018.9
20260504013944 69 31 5.0 6.0 0.00 0.03 0.03 78 1019.2
20260504013443 69 41 6.0 8.0 0.00 0.03 0.03 78 1019.2
20260504012938 69 5 4.0 6.0 0.00 0.03 0.03 78 1018.9
20260504012437 69 62 6.0 7.0 0.00 0.03 0.03 78 1018.9
20260504011934 69 50 3.0 3.0 0.00 0.03 0.03 78 1019.2
20260504011430 69 40 3.0 3.0 0.00 0.03 0.03 79 1018.9
20260504010926 69 34 3.0 3.0 0.00 0.03 0.03 78 1018.9
20260504010422 69 350 3.0 5.0 0.00 0.03 0.03 79 1018.9
20260504005919 69 49 2.0 2.0 0.00 0.03 0.03 78 1018.9
20260504005415 69 56 3.0 3.0 0.00 0.03 0.03 78 1018.9
20260504004913 70 40 1.0 2.0 0.00 0.03 0.03 78 1018.9
20260504004411 70 55 1.0 2.0 0.00 0.03 0.03 78 1018.9
20260504003908 70 20 4.0 5.0 0.00 0.03 0.03 77 1018.9
20260504003404 70 45 3.0 3.0 0.00 0.03 0.03 78 1018.9
20260504002900 70 41 3.0 3.0 0.00 0.03 0.03 77 1018.9
20260504002358 70 71 5.0 6.0 0.00 0.03 0.03 77 1018.9
20260504001855 70 72 3.0 5.0 0.00 0.03 0.03 77 1018.6
20260504001352 71 21 4.0 5.0 0.00 0.03 0.03 77 1018.6
20260504000849 71 68 6.0 7.0 0.00 0.03 0.03 77 1018.6
20260504000346 71 50 3.0 3.0 0.00 0.03 0.03 76 1018.6
20260503235843 71 18 3.0 3.0 0.00 0.03 0.03 75 1018.6
20260503235341 71 53 6.0 7.0 0.00 0.03 0.03 75 1018.2
20260503234838 71 20 6.0 7.0 0.00 0.03 0.03 74 1018.6
20260503234336 71 32 7.0 9.0 0.00 0.03 0.03 74 1018.2
20260503233834 72 21 5.0 6.0 0.00 0.03 0.03 74 1018.2
20260503233329 72 51 6.0 7.0 0.00 0.03 0.03 74 1018.6
20260503232826 72 71 5.0 7.0 0.00 0.03 0.03 74 1018.2
20260503232323 72 2 4.0 6.0 0.00 0.03 0.03 73 1018.2
20260503231821 72 51 5.0 6.0 0.00 0.03 0.03 72 1018.2
20260503231318 73 33 4.0 6.0 0.00 0.03 0.03 72 1018.2
20260503230814 73 65 5.0 7.0 0.00 0.03 0.03 70 1018.2
20260503230311 73 32 6.0 8.0 0.00 0.03 0.03 71 1018.2
20260503225809 73 52 7.0 9.0 0.00 0.03 0.03 70 1018.2
20260503225305 73 22 5.0 6.0 0.00 0.03 0.03 71 1018.2
20260503224801 74 51 6.0 8.0 0.00 0.03 0.03 70 1018.2
20260503224258 73 42 5.0 8.0 0.00 0.03 0.03 70 1017.9
20260503223756 73 53 10.0 10.0 0.00 0.03 0.03 69 1018.2
20260503223253 73 53 8.0 10.0 0.00 0.03 0.03 69 1018.2
20260503222749 73 69 7.0 10.0 0.00 0.03 0.03 69 1018.2
20260503222247 74 66 7.0 9.0 0.00 0.03 0.03 70 1017.9
20260503221746 74 36 7.0 10.0 0.00 0.03 0.03 70 1018.2
20260503221243 74 48 9.0 10.0 0.00 0.03 0.03 69 1018.2
20260503220739 74 34 7.0 8.0 0.00 0.03 0.03 69 1017.9
20260503220237 74 72 3.0 5.0 0.00 0.03 0.03 69 1017.9
20260503215733 74 50 3.0 6.0 0.00 0.03 0.03 68 1018.2
20260503215230 74 65 7.0 8.0 0.00 0.03 0.03 68 1018.2
20260503214728 74 24 7.0 8.0 0.00 0.03 0.03 67 1017.9
20260503214225 75 82 7.0 8.0 0.00 0.03 0.03 68 1018.2
20260503213723 75 79 6.0 8.0 0.00 0.03 0.03 67 1017.9
20260503213220 74 59 3.0 3.0 0.00 0.03 0.03 68 1017.9
20260503212717 75 28 6.0 8.0 0.00 0.03 0.03 67 1017.9
20260503212214 74 42 5.0 7.0 0.00 0.03 0.03 67 1018.2
20260503211712 75 46 10.0 11.0 0.00 0.03 0.03 67 1017.9
20260503211208 75 60 12.0 14.0 0.00 0.03 0.03 66 1017.9
20260503210703 75 22 6.0 8.0 0.00 0.03 0.03 66 1018.2
20260503210201 75 54 6.0 8.0 0.00 0.03 0.03 66 1018.2
20260503205656 75 43 9.0 11.0 0.00 0.03 0.03 68 1017.9
20260503205152 76 72 8.0 10.0 0.00 0.03 0.03 67 1017.9
20260503204649 74 56 3.0 5.0 0.00 0.03 0.03 66 1017.9
20260503204147 75 95 8.0 11.0 0.00 0.03 0.03 68 1018.2
20260503203643 74 65 5.0 7.0 0.00 0.03 0.03 68 1018.2
20260503203141 75 344 6.0 7.0 0.00 0.03 0.03 67 1018.2
20260503202638 76 16 9.0 10.0 0.00 0.03 0.03 66 1018.2
20260503202137 75 56 7.0 11.0 0.00 0.03 0.03 67 1017.9
20260503201634 74 68 4.0 6.0 0.00 0.03 0.03 68 1018.2
20260503201131 74 51 11.0 13.0 0.00 0.03 0.03 68 1018.6
20260503200627 75 72 6.0 10.0 0.00 0.03 0.03 68 1018.2
20260503200124 76 35 2.0 3.0 0.00 0.03 0.03 67 1018.2
20260503195621 76 32 5.0 8.0 0.00 0.03 0.03 65 1018.2
20260503195118 75 60 2.0 3.0 0.00 0.03 0.03 67 1018.2
20260503194615 76 45 11.0 16.0 0.00 0.03 0.03 66 1018.6
20260503194110 75 42 3.0 6.0 0.00 0.03 0.03 68 1018.6
20260503193607 76 37 2.0 5.0 0.00 0.03 0.03 67 1018.6
20260503193102 76 52 5.0 8.0 0.00 0.03 0.03 67 1018.9
20260503192558 75 8 7.0 9.0 0.00 0.03 0.03 66 1018.9
20260503192054 75 57 7.0 9.0 0.00 0.03 0.03 69 1018.9
20260503191551 76 82 9.0 10.0 0.00 0.03 0.03 67 1018.9
20260503191048 76 4 8.0 10.0 0.00 0.03 0.03 66 1019.2
20260503190545 76 352 7.0 11.0 0.00 0.03 0.03 68 1019.2
20260503190042 75 0 5.0 8.0 0.00 0.03 0.03 68 1018.9
20260503185533 76 40 11.0 14.0 0.00 0.03 0.03 68 1019.2
20260503185032 76 47 3.0 6.0 0.00 0.03 0.03 66 1019.2
20260503184529 75 61 7.0 8.0 0.00 0.03 0.03 66 1019.6
20260503184026 77 113 6.0 9.0 0.00 0.03 0.03 67 1019.2
20260503183522 76 49 2.0 3.0 0.00 0.03 0.03 68 1019.6
20260503183019 76 43 9.0 10.0 0.00 0.03 0.03 67 1019.2
20260503182518 75 61 9.0 10.0 0.00 0.03 0.03 68 1019.6
20260503182015 74 46 10.0 14.0 0.00 0.03 0.03 67 1019.9
20260503181512 74 34 5.0 7.0 0.00 0.03 0.03 68 1019.6
20260503181008 76 80 4.0 6.0 0.00 0.03 0.03 67 1019.6
20260503180506 75 59 7.0 9.0 0.00 0.03 0.03 67 1019.6
20260503180003 74 46 9.0 13.0 0.00 0.03 0.03 70 1019.6
20260503175501 75 80 7.0 9.0 0.00 0.03 0.03 69 1019.9
20260503174957 76 12 8.0 13.0 0.00 0.03 0.03 67 1019.6
20260503174455 75 73 6.0 9.0 0.00 0.03 0.03 67 1019.9
20260503173950 76 65 6.0 8.0 0.00 0.03 0.03 66 1019.6
20260503173446 75 72 5.0 6.0 0.00 0.03 0.03 68 1019.9
20260503172943 75 51 6.0 9.0 0.00 0.03 0.03 69 1019.9
20260503172440 74 27 5.0 7.0 0.00 0.03 0.03 69 1019.9
20260503171937 75 47 7.0 8.0 0.00 0.03 0.03 71 1020.3
20260503171433 75 60 7.0 13.0 0.00 0.03 0.03 68 1019.9
20260503170931 74 60 6.0 8.0 0.00 0.03 0.03 70 1019.9
20260503170427 74 20 3.0 5.0 0.00 0.03 0.03 72 1019.9
20260503150819 70 356 6.0 9.0 0.00 0.03 0.03 83 1020.6
20260503150315 70 63 3.0 6.0 0.00 0.03 0.03 84 1020.3
20260503140240 69 29 3.0 6.0 0.00 0.03 0.03 86 1019.6
20260503131209 65 120 2.0 2.0 0.00 0.03 0.03 93 1019.2
20260503130707 65 150 1.0 2.0 0.00 0.03 0.03 93 1019.6
20260503130204 65 203 1.0 2.0 0.00 0.03 0.03 94 1019.2
20260503120130 63 317 2.0 3.0 0.00 0.03 0.03 96 1018.6
20260503110557 63 50 2.0 3.0 0.00 0.03 0.03 97 1018.2
20260503090444 63 343 3.0 3.0 0.00 0.03 0.03 99 1017.2
20260503081411 63 4 6.0 8.0 0.00 0.03 0.03 99 1016.9
20260503080908 63 63 2.0 5.0 0.00 0.03 0.03 99 1016.9
20260503080404 63 340 0.0 1.0 0.00 0.03 0.03 99 1016.9